• In Österreich
  • Länderverzeichnis
  • Für 7 Tage
  • Wassertemperatur
  • Satellitenkarten
  • Wetterkarte
  • News
  • Widgets
  • user-avatar
    Anmelden

    Stündliche Wetter Santa Fe

    Heute, 23 Juni, Samstag

    Zeit Temperatur Niederschläge Wind Luftdruck Luftfeuchtigkeit
    00:00 +12°C° 0 mm 1 m/S 756 mmHg 65%
    01:00 +12°C° 0 mm 1 m/S 756 mmHg 67%
    02:00 +13°C° 0 mm 1 m/S 755 mmHg 67%
    03:00 +13°C° 0,1 mm 2 m/S 755 mmHg 69%
    04:00 +13°C° 0,1 mm 2 m/S 756 mmHg 70%
    05:00 +13°C° 0,1 mm 2 m/S 756 mmHg 71%
    06:00 +13°C° 0,2 mm 2 m/S 756 mmHg 73%
    07:00 +13°C° 0,2 mm 2 m/S 757 mmHg 76%
    08:00 +12°C° 0,2 mm 3 m/S 757 mmHg 78%
    09:00 +13°C° 0 mm 3 m/S 758 mmHg 74%
    10:00 +13°C° 0 mm 3 m/S 759 mmHg 71%
    11:00 +14°C° 0 mm 4 m/S 759 mmHg 67%
    12:00 +15°C° 0 mm 4 m/S 760 mmHg 61%
    13:00 +16°C° 0 mm 5 m/S 760 mmHg 55%
    14:00 +17°C° 0 mm 5 m/S 761 mmHg 49%
    15:00 +16°C° 0 mm 5 m/S 761 mmHg 51%
    16:00 +15°C° 0 mm 4 m/S 762 mmHg 54%
    17:00 +14°C° 0 mm 4 m/S 762 mmHg 56%
    18:00 +13°C° 0 mm 4 m/S 764 mmHg 58%
    19:00 +13°C° 0 mm 5 m/S 765 mmHg 60%
    20:00 +12°C° 0 mm 5 m/S 766 mmHg 62%
    21:00 +10°C° 0 mm 5 m/S 767 mmHg 64%
    22:00 +10°C° 0 mm 4 m/S 767 mmHg 67%
    23:00 +8°C° 0 mm 4 m/S 768 mmHg 69%

    Morgen, 24 Juni, Sonntag

    Zeit Temperatur Niederschläge Wind Luftdruck Luftfeuchtigkeit
    00:00 +8°C° 0 mm 3 m/S 768 mmHg 67%
    01:00 +8°C° 0 mm 3 m/S 768 mmHg 65%
    02:00 +7°C° 0 mm 3 m/S 769 mmHg 63%
    03:00 +5°C° 0 mm 3 m/S 769 mmHg 62%
    04:00 +4°C° 0 mm 3 m/S 768 mmHg 60%
    05:00 +4°C° 0 mm 3 m/S 768 mmHg 58%
    06:00 +5°C° 0 mm 2 m/S 768 mmHg 56%
    07:00 +5°C° 0 mm 2 m/S 768 mmHg 54%
    08:00 +5°C° 0 mm 2 m/S 768 mmHg 53%
    09:00 +5°C° 0 mm 3 m/S 768 mmHg 47%
    10:00 +8°C° 0 mm 3 m/S 768 mmHg 40%
    11:00 +10°C° 0 mm 3 m/S 768 mmHg 34%
    12:00 +10°C° 0 mm 3 m/S 767 mmHg 33%
    13:00 +12°C° 0 mm 2 m/S 766 mmHg 33%
    14:00 +13°C° 0 mm 2 m/S 765 mmHg 32%
    15:00 +12°C° 0 mm 2 m/S 764 mmHg 37%
    16:00 +10°C° 0 mm 2 m/S 764 mmHg 41%
    17:00 +9°C° 0 mm 2 m/S 763 mmHg 46%
    18:00 +8°C° 0 mm 2 m/S 763 mmHg 49%
    19:00 +8°C° 0 mm 2 m/S 763 mmHg 51%
    20:00 +7°C° 0 mm 2 m/S 763 mmHg 54%
    21:00 +7°C° 0 mm 2 m/S 763 mmHg 56%
    22:00 +7°C° 0 mm 2 m/S 763 mmHg 58%
    23:00 +7°C° 0 mm 2 m/S 763 mmHg 61%

    übermorgen, 25 Juni, Montag

    Zeit Temperatur Niederschläge Wind Luftdruck Luftfeuchtigkeit
    00:00 +7°C° 0 mm 1 m/S 763 mmHg 62%
    01:00 +7°C° 0 mm 1 m/S 763 mmHg 64%
    02:00 +7°C° 0 mm 1 m/S 763 mmHg 66%
    03:00 +7°C° 0 mm 1 m/S 763 mmHg 67%
    04:00 +7°C° 0 mm 1 m/S 762 mmHg 69%
    05:00 +6°C° 0 mm 1 m/S 762 mmHg 71%
    06:00 +6°C° 0 mm 1 m/S 763 mmHg 71%
    07:00 +7°C° 0 mm 1 m/S 763 mmHg 70%
    08:00 +6°C° 0 mm 0 m/S 763 mmHg 70%
    09:00 +9°C° 0 mm 1 m/S 763 mmHg 62%
    10:00 +11°C° 0 mm 1 m/S 764 mmHg 53%
    11:00 +13°C° 0 mm 2 m/S 764 mmHg 45%
    12:00 +14°C° 0 mm 2 m/S 763 mmHg 42%
    13:00 +15°C° 0 mm 2 m/S 763 mmHg 38%
    14:00 +16°C° 0 mm 2 m/S 762 mmHg 35%
    15:00 +15°C° 0 mm 2 m/S 762 mmHg 40%
    16:00 +14°C° 0 mm 1 m/S 762 mmHg 45%
    17:00 +12°C° 0 mm 1 m/S 762 mmHg 50%
    18:00 +12°C° 0 mm 1 m/S 762 mmHg 52%
    19:00 +11°C° 0 mm 1 m/S 762 mmHg 54%
    20:00 +10°C° 0 mm 1 m/S 762 mmHg 56%
    21:00 +10°C° 0 mm 1 m/S 762 mmHg 58%
    22:00 +9°C° 0 mm 1 m/S 762 mmHg 59%
    23:00 +9°C° 0 mm 1 m/S 762 mmHg 61%

    26 Juni, Dienstag

    Zeit Temperatur Niederschläge Wind Luftdruck Luftfeuchtigkeit
    00:00 +9°C° 0 mm 1 m/S 762 mmHg 62%
    01:00 +8°C° 0 mm 1 m/S 762 mmHg 63%
    02:00 +8°C° 0 mm 1 m/S 762 mmHg 65%
    03:00 +8°C° 0 mm 1 m/S 762 mmHg 66%
    04:00 +7°C° 0 mm 1 m/S 761 mmHg 67%
    05:00 +7°C° 0 mm 1 m/S 761 mmHg 68%
    06:00 +7°C° 0 mm 1 m/S 761 mmHg 68%
    07:00 +8°C° 0 mm 1 m/S 762 mmHg 68%
    08:00 +8°C° 0 mm 1 m/S 762 mmHg 67%
    09:00 +9°C° 0 mm 2 m/S 762 mmHg 60%
    10:00 +13°C° 0 mm 2 m/S 762 mmHg 52%
    11:00 +15°C° 0 mm 2 m/S 762 mmHg 45%
    12:00 +16°C° 0 mm 3 m/S 761 mmHg 42%
    13:00 +17°C° 0 mm 3 m/S 760 mmHg 40%
    14:00 +18°C° 0 mm 3 m/S 760 mmHg 37%
    15:00 +17°C° 0 mm 2 m/S 759 mmHg 42%
    16:00 +15°C° 0 mm 2 m/S 759 mmHg 48%
    17:00 +14°C° 0 mm 2 m/S 759 mmHg 53%
    18:00 +13°C° 0 mm 2 m/S 759 mmHg 56%
    19:00 +12°C° 0 mm 2 m/S 759 mmHg 58%
    20:00 +10°C° 0 mm 2 m/S 759 mmHg 61%
    21:00 +10°C° 0 mm 2 m/S 759 mmHg 63%
    22:00 +9°C° 0 mm 2 m/S 760 mmHg 64%
    23:00 +9°C° 0 mm 2 m/S 760 mmHg 66%

    27 Juni, Mittwoch

    Zeit Temperatur Niederschläge Wind Luftdruck Luftfeuchtigkeit
    00:00 +10°C° 0 mm 1 m/S 760 mmHg 67%
    01:00 +10°C° 0 mm 1 m/S 760 mmHg 68%
    02:00 +9°C° 0 mm 1 m/S 760 mmHg 69%
    03:00 +9°C° 0 mm 1 m/S 760 mmHg 70%
    04:00 +9°C° 0 mm 1 m/S 760 mmHg 71%
    05:00 +9°C° 0 mm 1 m/S 760 mmHg 72%
    06:00 +9°C° 0 mm 1 m/S 760 mmHg 72%
    07:00 +9°C° 0 mm 1 m/S 761 mmHg 73%
    08:00 +10°C° 0 mm 1 m/S 761 mmHg 74%
    09:00 +12°C° 0 mm 1 m/S 762 mmHg 68%
    10:00 +15°C° 0 mm 2 m/S 762 mmHg 63%
    11:00 +17°C° 0 mm 2 m/S 762 mmHg 57%
    12:00 +18°C° 0 mm 2 m/S 761 mmHg 55%
    13:00 +19°C° 0 mm 2 m/S 761 mmHg 52%
    14:00 +20°C° 0 mm 2 m/S 760 mmHg 50%
    15:00 +20°C° 0 mm 1 m/S 760 mmHg 55%
    16:00 +19°C° 0 mm 1 m/S 760 mmHg 61%
    17:00 +16°C° 0 mm 1 m/S 760 mmHg 66%
    18:00 +15°C° 0 mm 1 m/S 760 mmHg 70%
    19:00 +15°C° 0 mm 1 m/S 761 mmHg 73%
    20:00 +14°C° 0 mm 2 m/S 761 mmHg 77%
    21:00 +13°C° 0 mm 2 m/S 761 mmHg 80%
    22:00 +13°C° 0 mm 2 m/S 761 mmHg 83%
    23:00 +13°C° 0 mm 2 m/S 761 mmHg 86%

    28 Juni, Donnerstag

    Zeit Temperatur Niederschläge Wind Luftdruck Luftfeuchtigkeit
    00:00 +12°C° 0 mm 2 m/S 761 mmHg 88%
    01:00 +12°C° 0 mm 2 m/S 761 mmHg 89%
    02:00 +12°C° 0 mm 2 m/S 760 mmHg 91%
    03:00 +10°C° 0 mm 2 m/S 760 mmHg 92%
    04:00 +10°C° 0 mm 2 m/S 760 mmHg 93%
    05:00 +10°C° 0 mm 2 m/S 760 mmHg 94%
    06:00 +10°C° 0 mm 2 m/S 760 mmHg 94%
    07:00 +11°C° 0 mm 3 m/S 760 mmHg 94%
    08:00 +11°C° 0 mm 3 m/S 760 mmHg 94%
    09:00 +13°C° 0 mm 3 m/S 760 mmHg 86%
    10:00 +17°C° 0 mm 3 m/S 760 mmHg 79%
    11:00 +19°C° 0 mm 3 m/S 760 mmHg 71%
    12:00 +20°C° 0 mm 3 m/S 759 mmHg 68%
    13:00 +21°C° 0 mm 3 m/S 758 mmHg 65%
    14:00 +22°C° 0 mm 3 m/S 758 mmHg 61%
    15:00 +21°C° 0 mm 3 m/S 757 mmHg 68%
    16:00 +20°C° 0 mm 3 m/S 757 mmHg 74%
    17:00 +19°C° 0 mm 2 m/S 757 mmHg 80%
    18:00 +19°C° 0 mm 2 m/S 757 mmHg 82%
    19:00 +19°C° 0 mm 3 m/S 757 mmHg 85%
    20:00 +19°C° 0 mm 3 m/S 757 mmHg 87%
    21:00 +19°C° 0 mm 3 m/S 757 mmHg 89%
    22:00 +19°C° 0 mm 3 m/S 756 mmHg 91%
    23:00 +19°C° 0 mm 3 m/S 756 mmHg 93%
    Mehr zeigen